Clermont County, Batavia, OH

10:13 PM EST on December 10, 2019 (GMT -0500)
Clermont County, Batavia

Weather History for KI69 - September, 2019

Change the Weather History Date:

Thursday, September 12, 2019

  Actual Average (KLUK) Record (KLUK)
Temperature  
Mean Temperature 79 °F -  
Max Temperature 90 °F 79 °F 93 °F (1999)
Min Temperature 68 °F 58 °F 46 °F (1959)
Cooling Degree Days 14    
Growing Degree Days 29 (Base 50)    
Moisture  
Dew Point 70 °F    
Average Humidity 76    
Maximum Humidity 99    
Minimum Humidity 48    
Precipitation  
Precipitation 0.00 in - - ()
Sea Level Pressure  
Sea Level Pressure 30.15 in    
Wind  
Wind Speed 1 mph (WSW)    
Max Wind Speed 10 mph    
Max Gust Speed 16 mph    
Visibility 10 miles    
Events      
Averages and records for this station are not official NWS values.
T = Trace of Precipitation, MM = Missing Value Source: NWS Daily Summary

Daily Weather History Graph

Daily Weather History Graph

Search for Another Location

Airport or City:

Astronomy

Sep. 12, 2019 Rise Set
Actual Time 7:15 AM EDT 7:50 PM EDT
Civil Twilight 6:48 AM EDT 8:17 PM EDT
Nautical Twilight 6:16 AM EDT 8:48 PM EDT
Astronomical Twilight 5:43 AM EDT 9:21 PM EDT
Moon 7:33 PM EDT (9/12) 5:35 AM EDT (9/12)
Length of Visible Light 13h 28m
Length of Day
12h 35m
Waxing Gibbous, 98% of the Moon is Illuminated
Sep 12
Waxing Gibbous
Sep 14
Full
Sep 21
Last Quarter
Sep 28
New
Oct 5
First Quarter

Hourly Weather History & Observations

Time (EDT) Temp. Heat Index Dew Point Humidity Pressure Visibility Wind Dir Wind Speed Gust Speed Precip Events Conditions
12:15 AM 72.9 °F - 69.3 °F 88% 30.15 in 10.0 mi Calm Calm - N/A   Clear
12:35 AM 72.0 °F - 69.1 °F 91% 30.15 in 10.0 mi Calm Calm - N/A   Scattered Clouds
12:55 AM 72.9 °F - 68.9 °F 87% 30.14 in 10.0 mi Calm Calm - N/A   Scattered Clouds
1:19 AM 72.5 °F - 68.9 °F 88% 30.14 in 10.0 mi Calm Calm - N/A   Clear
1:37 AM 71.6 °F - 68.9 °F 91% 30.14 in 10.0 mi Calm Calm - N/A   Clear
1:55 AM 71.4 °F - 68.5 °F 91% 30.13 in 10.0 mi Calm Calm - N/A   Clear
2:15 AM 71.6 °F - 68.5 °F 90% 30.13 in 10.0 mi Calm Calm - N/A   Clear
2:35 AM 71.8 °F - 68.9 °F 91% 30.13 in 10.0 mi Calm Calm - N/A   Clear
2:59 AM 70.7 °F - 68.7 °F 93% 30.13 in 10.0 mi Calm Calm - N/A   Clear
3:17 AM 70.7 °F - 68.5 °F 93% 30.12 in 10.0 mi Calm Calm - N/A   Scattered Clouds
3:35 AM 70.2 °F - 68.4 °F 94% 30.13 in 10.0 mi Calm Calm - N/A   Clear
3:55 AM 69.8 °F - 68.0 °F 94% 30.13 in 10.0 mi Calm Calm - N/A   Clear
4:15 AM 71.1 °F - 68.2 °F 91% 30.13 in 10.0 mi Calm Calm - N/A   Clear
4:39 AM 69.1 °F - 68.2 °F 97% 30.14 in 10.0 mi Calm Calm - N/A   Clear
4:57 AM 69.3 °F - 68.0 °F 96% 30.14 in 10.0 mi Calm Calm - N/A   Clear
5:15 AM 69.3 °F - 68.2 °F 96% 30.14 in 10.0 mi Calm Calm - N/A   Clear
5:35 AM 69.1 °F - 68.4 °F 98% 30.14 in 7.0 mi Calm Calm - N/A   Clear
5:55 AM 69.8 °F - 67.8 °F 93% 30.15 in 10.0 mi Calm Calm - N/A   Clear
6:18 AM 68.0 °F - 67.3 °F 98% 30.16 in 7.0 mi Calm Calm - N/A   Clear
6:37 AM 68.4 °F - 68.0 °F 99% 30.17 in 7.0 mi Calm Calm - N/A   Clear
6:55 AM 68.5 °F - 67.1 °F 95% 30.17 in 10.0 mi Calm Calm - N/A   Clear
7:15 AM 68.2 °F - 67.1 °F 96% 30.18 in 10.0 mi Calm Calm - N/A   Clear
7:35 AM 68.9 °F - 67.3 °F 95% 30.18 in 10.0 mi Calm Calm - N/A   Clear
7:58 AM 68.9 °F - 67.5 °F 95% 30.19 in 10.0 mi Calm Calm - N/A   Clear
8:16 AM 69.4 °F - 68.4 °F 96% 30.19 in 5.0 mi Calm Calm - N/A   Clear
8:36 AM 70.7 °F - 69.4 °F 96% 30.19 in 7.0 mi Calm Calm - N/A   Clear
8:55 AM 75.7 °F - 70.2 °F 83% 30.19 in 10.0 mi WSW 3.5 mph - N/A   Clear
9:15 AM 78.1 °F - 70.2 °F 77% 30.19 in 10.0 mi WSW 5.8 mph - N/A   Clear
9:38 AM 79.3 °F - 70.7 °F 75% 30.19 in 10.0 mi WSW 5.8 mph - N/A   Clear
9:56 AM 80.6 °F 84.4 °F 71.2 °F 73% 30.19 in 10.0 mi WSW 4.6 mph - N/A   Clear
10:15 AM 82.2 °F 87.1 °F 71.8 °F 71% 30.19 in 10.0 mi West 4.6 mph - N/A   Clear
10:35 AM 83.5 °F 88.8 °F 71.8 °F 68% 30.19 in 10.0 mi West 5.8 mph - N/A   Clear
10:55 AM 84.9 °F 90.7 °F 72.0 °F 65% 30.19 in 10.0 mi WNW 6.9 mph - N/A   Clear
11:18 AM 85.3 °F 90.8 °F 71.6 °F 63% 30.19 in 10.0 mi West 6.9 mph - N/A   Clear
11:36 AM 85.1 °F 90.1 °F 70.7 °F 62% 30.18 in 10.0 mi West 4.6 mph - N/A   Clear
11:55 AM 85.6 °F 90.8 °F 70.7 °F 61% 30.18 in 10.0 mi West 6.9 mph - N/A   Clear
12:15 PM 86.9 °F 92.1 °F 70.5 °F 58% 30.18 in 10.0 mi WSW 8.1 mph - N/A   Scattered Clouds
12:35 PM 86.2 °F 90.7 °F 70.0 °F 58% 30.17 in 10.0 mi NW 10.4 mph - N/A   Scattered Clouds
12:58 PM 86.2 °F 91.1 °F 70.5 °F 59% 30.17 in 10.0 mi West 6.9 mph - N/A   Scattered Clouds
1:16 PM 86.0 °F 90.1 °F 69.1 °F 57% 30.17 in 10.0 mi West 9.2 mph - N/A   Scattered Clouds
1:56 PM 90.1 °F 94.9 °F 69.4 °F 50% 30.16 in 10.0 mi WSW 10.4 mph 16.1 mph N/A   Mostly Cloudy
2:15 PM 88.0 °F 92.1 °F 69.1 °F 53% 30.16 in 10.0 mi NW 5.8 mph - N/A   Mostly Cloudy
2:38 PM 88.9 °F 93.0 °F 68.5 °F 51% 30.16 in 10.0 mi WNW 3.5 mph - N/A   Scattered Clouds
2:56 PM 86.9 °F 90.3 °F 67.8 °F 53% 30.15 in 10.0 mi WNW 6.9 mph - N/A   Scattered Clouds
3:15 PM 89.6 °F 93.9 °F 68.7 °F 50% 30.14 in 10.0 mi West 3.5 mph - N/A   Scattered Clouds
3:35 PM 90.1 °F 94.4 °F 68.7 °F 49% 30.14 in 10.0 mi West 6.9 mph - N/A   Clear
3:55 PM 88.9 °F 92.2 °F 67.5 °F 49% 30.13 in 10.0 mi Calm Calm - N/A   Scattered Clouds
4:18 PM 89.6 °F 93.0 °F 67.6 °F 48% 30.13 in 10.0 mi Calm Calm - N/A   Clear
4:36 PM 88.3 °F 92.0 °F 68.0 °F 51% 30.13 in 10.0 mi Calm Calm - N/A   Mostly Cloudy
4:55 PM 88.2 °F 93.3 °F 70.3 °F 55% 30.13 in 10.0 mi Calm Calm - N/A   Scattered Clouds
5:15 PM 90.1 °F 94.0 °F 67.8 °F 48% 30.12 in 10.0 mi WSW 4.6 mph - N/A   Clear
5:39 PM 89.1 °F 92.5 °F 67.8 °F 49% 30.12 in 10.0 mi Calm Calm - N/A   Clear
5:58 PM 88.9 °F 93.4 °F 69.4 °F 52% 30.12 in 10.0 mi South 3.5 mph - N/A   Clear
6:16 PM 86.9 °F 92.1 °F 70.3 °F 58% 30.12 in 10.0 mi Calm Calm - N/A   Clear
6:35 PM 86.9 °F 93.3 °F 71.8 °F 61% 30.12 in 10.0 mi SE 3.5 mph - N/A   Clear
6:55 PM 86.5 °F 92.9 °F 72.0 °F 62% 30.12 in 10.0 mi SE 3.5 mph - N/A   Clear
7:19 PM 85.6 °F 90.8 °F 70.9 °F 61% 30.12 in 10.0 mi SE 4.6 mph - N/A   Clear
7:37 PM 84.6 °F 90.0 °F 71.4 °F 65% 30.12 in 10.0 mi SE 3.5 mph - N/A   Clear
7:56 PM 83.3 °F 88.4 °F 72.0 °F 68% 30.12 in 10.0 mi Calm Calm - N/A   Clear
8:15 PM 82.4 °F 87.4 °F 72.3 °F 71% 30.12 in 10.0 mi Calm Calm - N/A   Clear
8:35 PM 81.5 °F 86.5 °F 72.9 °F 75% 30.12 in 10.0 mi Calm Calm - N/A   Clear
8:59 PM 80.8 °F 85.1 °F 72.1 °F 75% 30.12 in 10.0 mi Calm Calm - N/A   Clear
9:17 PM 78.3 °F - 72.1 °F 81% 30.13 in 10.0 mi Calm Calm - N/A   Clear
9:36 PM 78.3 °F - 72.0 °F 81% 30.14 in 10.0 mi Calm Calm - N/A   Clear
9:55 PM 77.4 °F - 72.0 °F 83% 30.14 in 10.0 mi Calm Calm - N/A   Clear
10:15 PM 76.8 °F - 72.3 °F 86% 30.14 in 10.0 mi Calm Calm - N/A   Clear
10:39 PM 75.4 °F - 71.4 °F 87% 30.14 in 10.0 mi Calm Calm - N/A   Clear
10:57 PM 73.6 °F - 70.9 °F 91% 30.14 in 10.0 mi Calm Calm - N/A   Clear
11:16 PM 75.2 °F - 71.8 °F 89% 30.14 in 10.0 mi Calm Calm - N/A   Clear
11:35 PM 74.1 °F - 72.0 °F 93% 30.14 in 10.0 mi Calm Calm - N/A   Clear
11:55 PM 73.6 °F - 71.1 °F 92% 30.14 in 10.0 mi Calm Calm - N/A   Clear